Location: アルンシュタイン
(50.0000°N, 10.0000°E)
Time: 01:10:56
(UTC+02:00)

Tiros 1 despin weight - Pass Details

Date: 20 September 2024
Orbit: 573 x 615 km, 48.2° (Epoch: 04 October)

Event Time Altitude Azimuth Distance (km) Brightness Sun altitude
Exits shadow 03:19:17 15° 92° (E) 1,675 ? -32.4°
Drops below altitude 10° 03:20:09 10° 87° (E) 1,979 ? -32.3°
Sets 03:22:35 0° 80° (E) 2,889 ? -32.0°
